Location: Hokitika
(42.7170°S, 170.9670°E)
Time: 09:46:56
(UTC+13:00)

USA 32 - Pass Details

Date: 24 January 2019
Orbit: 776 x 784 km, 85.0° (Epoch: 09 February)

Event Time Altitude Azimuth Distance (km) Brightness Sun altitude
Rises 21:31:33 0° 2° (N) 3,252 6.9 -4.5°
Reaches altitude 10° 21:33:53 10° 3° (N) 2,333 6.2 -4.9°
Maximum altitude 21:39:07 76° 88° (E) 817 4.1 -5.7°
Drops below altitude 10° 21:44:26 10° 172° (S) 2,369 6.9 -6.5°
Sets 21:46:49 0° 173° (S) 3,306 7.7 -6.9°
